owner,sensor,date,latitude,longitude,vertical_datum,direction_of_sea_water_velocity,sea_water_speed,upward_sea_water_velocity,qcFlag 
TABS,ioos:station:wmo:42051:1,2011-01-01T00:00:00Z,29.6350,-93.6417,2.0,342.0182253,8.000812459,-99999.0,'11133222,11111222,99999999' 
TABS,ioos:station:wmo:42051:1,2011-01-01T00:30:00Z,29.6350,-93.6417,2.0,254.6849137,24.45853021,-99999.0,'11111222,11111222,99999999' 
TABS,ioos:station:wmo:42051:1,2011-01-01T01:00:00Z,29.6350,-93.6417,2.0,260.7750972,24.95269324,-99999.0,'11111222,11111222,99999999' 
TABS,ioos:station:wmo:42051:1,2011-01-01T01:30:00Z,29.6350,-93.6417,2.0,259.0021917,28.04502451,-99999.0,'11111222,11111222,99999999' 
TABS,ioos:station:wmo:42051:1,2011-01-01T02:00:00Z,29.6350,-93.6417,2.0,242.8333676,25.99795761,-99999.0,'11111222,11111222,99999999' 
TABS,ioos:station:wmo:42051:1,2011-01-01T02:30:00Z,29.6350,-93.6417,2.0,241.6783109,24.51434886,-99999.0,'11111222,11111222,99999999' 
TABS,ioos:station:wmo:42051:1,2011-01-01T03:00:00Z,29.6350,-93.6417,2.0,242.6594195,25.45325519,-99999.0,'11111222,11111222,99999999' 
TABS,ioos:station:wmo:42051:1,2011-01-01T03:30:00Z,29.6350,-93.6417,2.0,240.6099011,23.41324625,-99999.0,'11111222,11111222,99999999' 
TABS,ioos:station:wmo:42051:1,2011-01-01T04:00:00Z,29.6350,-93.6417,2.0,245.3857912,20.09601453,-99999.0,'11111222,11111222,99999999' 
TABS,ioos:station:wmo:42051:1,2011-01-01T04:30:00Z,29.6350,-93.6417,2.0,249.2282086,22.10688807,-99999.0,'11111222,11111222,99999999' 
TABS,ioos:station:wmo:42051:1,2011-01-01T05:00:00Z,29.6350,-93.6417,2.0,251.8371945,19.28062499,-99999.0,'11111222,11111222,99999999' 
TABS,ioos:station:wmo:42051:1,2011-01-01T05:30:00Z,29.6350,-93.6417,2.0,249.2575685,20.18853387,-99999.0,'11111222,11111222,99999999' 
TABS,ioos:station:wmo:42051:1,2011-01-01T06:00:00Z,29.6350,-93.6417,2.0,244.7309297,20.75602322,-99999.0,'11111222,11111222,99999999' 
TABS,ioos:station:wmo:42051:1,2011-01-01T06:30:00Z,29.6350,-93.6417,2.0,249.4402225,19.96136769,-99999.0,'11111222,11111222,99999999' 
TABS,ioos:station:wmo:42051:1,2011-01-01T07:00:00Z,29.6350,-93.6417,2.0,228.4137479,23.98520377,-99999.0,'11111222,11111222,99999999' 
TABS,ioos:station:wmo:42051:1,2011-01-01T07:30:00Z,29.6350,-93.6417,2.0,223.6075349,23.57482768,-99999.0,'11111222,11111222,99999999' 
TABS,ioos:station:wmo:42051:1,2011-01-01T08:00:00Z,29.6350,-93.6417,2.0,223.8795974,29.66172618,-99999.0,'11111222,11111222,99999999' 
TABS,ioos:station:wmo:42051:1,2011-01-01T08:30:00Z,29.6350,-93.6417,2.0,229.6026602,28.90074394,-99999.0,'11111222,11111222,99999999' 
TABS,ioos:station:wmo:42051:1,2011-01-01T09:00:00Z,29.6350,-93.6417,2.0,227.2473599,28.66695136,-99999.0,'11111222,11111222,99999999' 
TABS,ioos:station:wmo:42051:1,2011-01-01T09:30:00Z,29.6350,-93.6417,2.0,230.7419542,25.44209111,-99999.0,'11111222,11111222,99999999' 
TABS,ioos:station:wmo:42051:1,2011-01-01T10:00:00Z,29.6350,-93.6417,2.0,238.1363752,24.3609462,-99999.0,'11111222,11111222,99999999' 
TABS,ioos:station:wmo:42051:1,2011-01-01T10:30:00Z,29.6350,-93.6417,2.0,236.1608674,25.64387646,-99999.0,'11111222,11111222,99999999' 
TABS,ioos:station:wmo:42051:1,2011-01-01T11:00:00Z,29.6350,-93.6417,2.0,240.4176249,25.74599386,-99999.0,'11111222,11111222,99999999' 
TABS,ioos:station:wmo:42051:1,2011-01-01T11:30:00Z,29.6350,-93.6417,2.0,243.109827,29.98168107,-99999.0,'11111222,11111222,99999999' 
TABS,ioos:station:wmo:42051:1,2011-01-01T12:00:00Z,29.6350,-93.6417,2.0,238.120482,41.86471784,-99999.0,'11111222,11111222,99999999' 
TABS,ioos:station:wmo:42051:1,2011-01-01T12:30:00Z,29.6350,-93.6417,2.0,244.1157953,42.8818703,-99999.0,'11111222,11111222,99999999' 
TABS,ioos:station:wmo:42051:1,2011-01-01T13:00:00Z,29.6350,-93.6417,2.0,247.1062815,41.90047732,-99999.0,'11111222,11111222,99999999' 
TABS,ioos:station:wmo:42051:1,2011-01-01T13:30:00Z,29.6350,-93.6417,2.0,247.368237,42.04769316,-99999.0,'11111222,11111222,99999999' 
TABS,ioos:station:wmo:42051:1,2011-01-01T14:00:00Z,29.6350,-93.6417,2.0,250.6610315,40.10266824,-99999.0,'11111222,11111222,99999999' 
TABS,ioos:station:wmo:42051:1,2011-01-01T14:30:00Z,29.6350,-93.6417,2.0,247.5574442,40.68096484,-99999.0,'11111222,11111222,99999999' 
TABS,ioos:station:wmo:42051:1,2011-01-01T15:00:00Z,29.6350,-93.6417,2.0,245.3119749,43.00030814,-99999.0,'11111222,11111222,99999999' 
TABS,ioos:station:wmo:42051:1,2011-01-01T15:30:00Z,29.6350,-93.6417,2.0,248.1079539,44.78977115,-99999.0,'11111222,11111222,99999999' 
TABS,ioos:station:wmo:42051:1,2011-01-01T16:00:00Z,29.6350,-93.6417,2.0,251.4989674,49.63514279,-99999.0,'11111222,11111222,99999999' 
TABS,ioos:station:wmo:42051:1,2011-01-01T16:30:00Z,29.6350,-93.6417,2.0,252.4192261,49.82722649,-99999.0,'11111222,11111222,99999999' 
TABS,ioos:station:wmo:42051:1,2011-01-01T17:00:00Z,29.6350,-93.6417,2.0,250.4902893,52.28164114,-99999.0,'11111222,11111222,99999999' 
TABS,ioos:station:wmo:42051:1,2011-01-01T17:30:00Z,29.6350,-93.6417,2.0,262.1129602,49.92218946,-99999.0,'11111222,11111222,99999999' 
TABS,ioos:station:wmo:42051:1,2011-01-01T18:00:00Z,29.6350,-93.6417,2.0,254.7916984,43.64856126,-99999.0,'11111222,11111222,99999999' 
TABS,ioos:station:wmo:42051:1,2011-01-01T18:30:00Z,29.6350,-93.6417,2.0,259.150296,41.22690505,-99999.0,'11111222,11111222,99999999' 
TABS,ioos:station:wmo:42051:1,2011-01-01T19:00:00Z,29.6350,-93.6417,2.0,269.971264,40.47000494,-99999.0,'11111222,11111222,99999999' 
TABS,ioos:station:wmo:42051:1,2011-01-01T19:30:00Z,29.6350,-93.6417,2.0,254.6626433,38.67742106,-99999.0,'11111222,11111222,99999999' 
TABS,ioos:station:wmo:42051:1,2011-01-01T20:00:00Z,29.6350,-93.6417,2.0,258.2413506,39.60098231,-99999.0,'11111222,11111222,99999999' 
TABS,ioos:station:wmo:42051:1,2011-01-01T20:30:00Z,29.6350,-93.6417,2.0,248.9678766,42.8549227,-99999.0,'11111222,11111222,99999999' 
TABS,ioos:station:wmo:42051:1,2011-01-01T21:00:00Z,29.6350,-93.6417,2.0,253.0943213,38.61884773,-99999.0,'11111222,11111222,99999999' 
TABS,ioos:station:wmo:42051:1,2011-01-01T21:30:00Z,29.6350,-93.6417,2.0,249.2402294,40.23197733,-99999.0,'11111222,11111222,99999999' 
TABS,ioos:station:wmo:42051:1,2011-01-01T22:00:00Z,29.6350,-93.6417,2.0,247.1316695,40.50345664,-99999.0,'11111222,11111222,99999999' 
TABS,ioos:station:wmo:42051:1,2011-01-01T22:30:00Z,29.6350,-93.6417,2.0,251.9506825,49.28521584,-99999.0,'11111222,11111222,99999999' 
TABS,ioos:station:wmo:42051:1,2011-01-01T23:00:00Z,29.6350,-93.6417,2.0,250.7381706,48.22975223,-99999.0,'11111222,11111222,99999999' 
TABS,ioos:station:wmo:42051:1,2011-01-01T23:30:00Z,29.6350,-93.6417,2.0,254.4961204,50.58041123,-99999.0,'11111222,11111222,99999999' 
TABS,ioos:station:wmo:42051:1,2011-01-02T00:00:00Z,29.6350,-93.6417,2.0,250.7071906,56.63008564,-99999.0,'11111222,11111222,99999999' 
TABS,ioos:station:wmo:42051:1,2011-01-02T00:30:00Z,29.6350,-93.6417,2.0,254.4152144,44.25707853,-99999.0,'11111222,11111222,99999999' 
TABS,ioos:station:wmo:42051:1,2011-01-02T01:00:00Z,29.6350,-93.6417,2.0,255.267065,39.71571603,-99999.0,'11111222,11111222,99999999' 
TABS,ioos:station:wmo:42051:1,2011-01-02T01:30:00Z,29.6350,-93.6417,2.0,251.907757,44.88933615,-99999.0,'11111222,11111222,99999999' 
TABS,ioos:station:wmo:42051:1,2011-01-02T02:00:00Z,29.6350,-93.6417,2.0,249.6060337,37.56450718,-99999.0,'11111222,11111222,99999999' 
TABS,ioos:station:wmo:42051:1,2011-01-02T02:30:00Z,29.6350,-93.6417,2.0,254.0674202,35.77418622,-99999.0,'11111222,11111222,99999999' 
TABS,ioos:station:wmo:42051:1,2011-01-02T03:00:00Z,29.6350,-93.6417,2.0,250.0129056,40.63752207,-99999.0,'11111222,11111222,99999999' 
TABS,ioos:station:wmo:42051:1,2011-01-02T03:30:00Z,29.6350,-93.6417,2.0,250.4706884,36.10714334,-99999.0,'11111222,11111222,99999999' 
TABS,ioos:station:wmo:42051:1,2011-01-02T04:00:00Z,29.6350,-93.6417,2.0,250.6668158,37.93934106,-99999.0,'11111222,11111222,99999999' 
TABS,ioos:station:wmo:42051:1,2011-01-02T04:30:00Z,29.6350,-93.6417,2.0,246.0572262,40.56003575,-99999.0,'11111222,11111222,99999999' 
TABS,ioos:station:wmo:42051:1,2011-01-02T05:00:00Z,29.6350,-93.6417,2.0,317.9385757,4.000412479,-99999.0,'11133222,11111222,99999999' 
TABS,ioos:station:wmo:42051:1,2011-01-02T05:30:00Z,29.6350,-93.6417,2.0,249.1375214,46.66965288,-99999.0,'11111222,11111222,99999999' 
TABS,ioos:station:wmo:42051:1,2011-01-02T06:00:00Z,29.6350,-93.6417,2.0,248.792167,40.66389307,-99999.0,'11111222,11111222,99999999' 
TABS,ioos:station:wmo:42051:1,2011-01-02T06:30:00Z,29.6350,-93.6417,2.0,244.3296515,36.35842956,-99999.0,'11111222,11111222,99999999' 
TABS,ioos:station:wmo:42051:1,2011-01-02T07:00:00Z,29.6350,-93.6417,2.0,248.7579674,57.02418873,-99999.0,'11111222,11111222,99999999' 
TABS,ioos:station:wmo:42051:1,2011-01-02T07:30:00Z,29.6350,-93.6417,2.0,246.1100104,47.90407081,-99999.0,'11111222,11111222,99999999' 
TABS,ioos:station:wmo:42051:1,2011-01-02T08:00:00Z,29.6350,-93.6417,2.0,239.6577592,44.40188397,-99999.0,'11111222,11111222,99999999' 
TABS,ioos:station:wmo:42051:1,2011-01-02T08:30:00Z,29.6350,-93.6417,2.0,241.8346672,43.72770403,-99999.0,'11111222,11111222,99999999' 
TABS,ioos:station:wmo:42051:1,2011-01-02T09:00:00Z,29.6350,-93.6417,2.0,241.0054346,41.46713036,-99999.0,'11111222,11111222,99999999' 
TABS,ioos:station:wmo:42051:1,2011-01-02T09:30:00Z,29.6350,-93.6417,2.0,236.1628042,42.22114399,-99999.0,'11111222,11111222,99999999' 
TABS,ioos:station:wmo:42051:1,2011-01-02T10:00:00Z,29.6350,-93.6417,2.0,237.5875232,43.89879839,-99999.0,'11111222,11111222,99999999' 
TABS,ioos:station:wmo:42051:1,2011-01-02T10:30:00Z,29.6350,-93.6417,2.0,237.4292197,40.73663953,-99999.0,'11111222,11111222,99999999' 
TABS,ioos:station:wmo:42051:1,2011-01-02T11:00:00Z,29.6350,-93.6417,2.0,231.3262092,45.88072907,-99999.0,'11111222,11111222,99999999' 
TABS,ioos:station:wmo:42051:1,2011-01-02T11:30:00Z,29.6350,-93.6417,2.0,236.738604,41.11553113,-99999.0,'11111222,11111222,99999999' 
TABS,ioos:station:wmo:42051:1,2011-01-02T12:00:00Z,29.6350,-93.6417,2.0,239.7277666,40.05126964,-99999.0,'11111222,11111222,99999999' 
TABS,ioos:station:wmo:42051:1,2011-01-02T12:30:00Z,29.6350,-93.6417,2.0,240.2437502,45.15360561,-99999.0,'11111222,11111222,99999999' 
TABS,ioos:station:wmo:42051:1,2011-01-02T13:00:00Z,29.6350,-93.6417,2.0,246.7753415,40.98074182,-99999.0,'11111222,11111222,99999999' 
TABS,ioos:station:wmo:42051:1,2011-01-02T13:30:00Z,29.6350,-93.6417,2.0,246.3467668,41.89988663,-99999.0,'11111222,11111222,99999999' 
TABS,ioos:station:wmo:42051:1,2011-01-02T14:00:00Z,29.6350,-93.6417,2.0,248.1299967,34.309095,-99999.0,'11111222,11111222,99999999' 
TABS,ioos:station:wmo:42051:1,2011-01-02T14:30:00Z,29.6350,-93.6417,2.0,253.5784586,33.74653316,-99999.0,'11111222,11111222,99999999' 
TABS,ioos:station:wmo:42051:1,2011-01-02T15:00:00Z,29.6350,-93.6417,2.0,253.4660626,33.45318072,-99999.0,'11111222,11111222,99999999' 
TABS,ioos:station:wmo:42051:1,2011-01-02T15:30:00Z,29.6350,-93.6417,2.0,255.2509306,28.47830929,-99999.0,'11111222,11111222,99999999' 
TABS,ioos:station:wmo:42051:1,2011-01-02T16:00:00Z,29.6350,-93.6417,2.0,253.3979918,35.9798388,-99999.0,'11111222,11111222,99999999' 
TABS,ioos:station:wmo:42051:1,2011-01-02T16:30:00Z,29.6350,-93.6417,2.0,258.239314,40.91893449,-99999.0,'11111222,11111222,99999999' 
TABS,ioos:station:wmo:42051:1,2011-01-02T17:00:00Z,29.6350,-93.6417,2.0,258.09292,42.55558718,-99999.0,'11111222,11111222,99999999' 
TABS,ioos:station:wmo:42051:1,2011-01-02T17:30:00Z,29.6350,-93.6417,2.0,258.4508463,43.75585104,-99999.0,'11111222,11111222,99999999' 
TABS,ioos:station:wmo:42051:1,2011-01-02T18:00:00Z,29.6350,-93.6417,2.0,257.4748157,46.43504926,-99999.0,'11111222,11111222,99999999' 
TABS,ioos:station:wmo:42051:1,2011-01-02T18:30:00Z,29.6350,-93.6417,2.0,262.1417905,47.90985389,-99999.0,'11111222,11111222,99999999' 
TABS,ioos:station:wmo:42051:1,2011-01-02T19:00:00Z,29.6350,-93.6417,2.0,261.222796,36.96282592,-99999.0,'11111222,11111222,99999999' 
TABS,ioos:station:wmo:42051:1,2011-01-02T19:30:00Z,29.6350,-93.6417,2.0,260.8189074,37.79413976,-99999.0,'11111222,11111222,99999999' 
TABS,ioos:station:wmo:42051:1,2011-01-02T20:00:00Z,29.6350,-93.6417,2.0,262.2755542,52.08255082,-99999.0,'11111222,11111222,99999999' 
TABS,ioos:station:wmo:42051:1,2011-01-02T20:30:00Z,29.6350,-93.6417,2.0,261.6013252,41.6971294,-99999.0,'11111222,11111222,99999999' 
TABS,ioos:station:wmo:42051:1,2011-01-02T21:00:00Z,29.6350,-93.6417,2.0,263.1604346,37.78889255,-99999.0,'11111222,11111222,99999999' 
TABS,ioos:station:wmo:42051:1,2011-01-02T21:30:00Z,29.6350,-93.6417,2.0,258.2152059,34.81376883,-99999.0,'11111222,11111222,99999999' 
TABS,ioos:station:wmo:42051:1,2011-01-02T22:00:00Z,29.6350,-93.6417,2.0,256.7985228,32.4474375,-99999.0,'11111222,11111222,99999999' 
TABS,ioos:station:wmo:42051:1,2011-01-02T22:30:00Z,29.6350,-93.6417,2.0,251.8461309,34.11822533,-99999.0,'11111222,11111222,99999999' 
TABS,ioos:station:wmo:42051:1,2011-01-02T23:00:00Z,29.6350,-93.6417,2.0,258.6862766,33.08283089,-99999.0,'11111222,11111222,99999999' 
TABS,ioos:station:wmo:42051:1,2011-01-02T23:30:00Z,29.6350,-93.6417,2.0,251.8240515,26.54443068,-99999.0,'11111222,11111222,99999999' 
TABS,ioos:station:wmo:42051:1,2011-01-03T00:00:00Z,29.6350,-93.6417,2.0,256.4825771,23.01757589,-99999.0,'11111222,11111222,99999999' 
TABS,ioos:station:wmo:42051:1,2011-01-03T00:30:00Z,29.6350,-93.6417,2.0,252.0513033,21.22281084,-99999.0,'11111222,11111222,99999999' 
TABS,ioos:station:wmo:42051:1,2011-01-03T01:00:00Z,29.6350,-93.6417,2.0,255.0555816,26.3305469,-99999.0,'11111222,11111222,99999999' 
TABS,ioos:station:wmo:42051:1,2011-01-03T01:30:00Z,29.6350,-93.6417,2.0,252.233952,25.9893709,-99999.0,'11111222,11111222,99999999' 
TABS,ioos:station:wmo:42051:1,2011-01-03T02:00:00Z,29.6350,-93.6417,2.0,263.0744154,23.47123559,-99999.0,'11111222,11111222,99999999' 
TABS,ioos:station:wmo:42051:1,2011-01-03T02:30:00Z,29.6350,-93.6417,2.0,264.6968357,22.50632133,-99999.0,'11111222,11111222,99999999' 
TABS,ioos:station:wmo:42051:1,2011-01-03T03:00:00Z,29.6350,-93.6417,2.0,256.3115484,21.55211359,-99999.0,'11111222,11111222,99999999' 
TABS,ioos:station:wmo:42051:1,2011-01-03T03:30:00Z,29.6350,-93.6417,2.0,248.1190775,26.88685366,-99999.0,'11111222,11111222,99999999' 
TABS,ioos:station:wmo:42051:1,2011-01-03T04:00:00Z,29.6350,-93.6417,2.0,261.2922292,20.21296614,-99999.0,'11111222,11111222,99999999' 
TABS,ioos:station:wmo:42051:1,2011-01-03T04:30:00Z,29.6350,-93.6417,2.0,279.6350687,18.5821016,-99999.0,'11111222,11111222,99999999' 
TABS,ioos:station:wmo:42051:1,2011-01-03T05:00:00Z,29.6350,-93.6417,2.0,269.8860663,20.19003962,-99999.0,'11111222,11111222,99999999' 
TABS,ioos:station:wmo:42051:1,2011-01-03T05:30:00Z,29.6350,-93.6417,2.0,281.7249554,19.24145784,-99999.0,'11111222,11111222,99999999' 
TABS,ioos:station:wmo:42051:1,2011-01-03T06:00:00Z,29.6350,-93.6417,2.0,265.1645754,27.99963571,-99999.0,'11111222,11111222,99999999' 
TABS,ioos:station:wmo:42051:1,2011-01-03T06:30:00Z,29.6350,-93.6417,2.0,259.6930619,30.23790006,-99999.0,'11111222,11111222,99999999' 
TABS,ioos:station:wmo:42051:1,2011-01-03T07:00:00Z,29.6350,-93.6417,2.0,256.9557085,31.36941185,-99999.0,'11111222,11111222,99999999' 
TABS,ioos:station:wmo:42051:1,2011-01-03T07:30:00Z,29.6350,-93.6417,2.0,256.9542597,23.70170036,-99999.0,'11111222,11111222,99999999' 
TABS,ioos:station:wmo:42051:1,2011-01-03T08:00:00Z,29.6350,-93.6417,2.0,259.8088999,23.79538821,-99999.0,'11111222,11111222,99999999' 
TABS,ioos:station:wmo:42051:1,2011-01-03T08:30:00Z,29.6350,-93.6417,2.0,254.1583824,24.17824642,-99999.0,'11111222,11111222,99999999' 
TABS,ioos:station:wmo:42051:1,2011-01-03T09:00:00Z,29.6350,-93.6417,2.0,256.4724756,21.29061765,-99999.0,'11111222,11111222,99999999' 
TABS,ioos:station:wmo:42051:1,2011-01-03T09:30:00Z,29.6350,-93.6417,2.0,246.4561893,24.4339436,-99999.0,'11111222,11111222,99999999' 
TABS,ioos:station:wmo:42051:1,2011-01-03T10:00:00Z,29.6350,-93.6417,2.0,246.2556368,22.89825321,-99999.0,'11111222,11111222,99999999' 
TABS,ioos:station:wmo:42051:1,2011-01-03T10:30:00Z,29.6350,-93.6417,2.0,232.3227857,29.67894371,-99999.0,'11111222,11111222,99999999' 
TABS,ioos:station:wmo:42051:1,2011-01-03T11:00:00Z,29.6350,-93.6417,2.0,248.8557812,33.65578256,-99999.0,'11111222,11111222,99999999' 
TABS,ioos:station:wmo:42051:1,2011-01-03T11:30:00Z,29.6350,-93.6417,2.0,249.7970975,31.67895989,-99999.0,'11111222,11111222,99999999' 
TABS,ioos:station:wmo:42051:1,2011-01-03T12:00:00Z,29.6350,-93.6417,2.0,247.645191,27.89645318,-99999.0,'11111222,11111222,99999999' 
TABS,ioos:station:wmo:42051:1,2011-01-03T12:30:00Z,29.6350,-93.6417,2.0,252.3114771,27.41611387,-99999.0,'11111222,11111222,99999999' 
TABS,ioos:station:wmo:42051:1,2011-01-03T13:00:00Z,29.6350,-93.6417,2.0,253.7681703,23.11120291,-99999.0,'11111222,11111222,99999999' 
TABS,ioos:station:wmo:42051:1,2011-01-03T13:30:00Z,29.6350,-93.6417,2.0,267.3205503,20.75268175,-99999.0,'11111222,11111222,99999999' 
TABS,ioos:station:wmo:42051:1,2011-01-03T14:00:00Z,29.6350,-93.6417,2.0,266.314441,20.69278618,-99999.0,'11111222,11111222,99999999' 
TABS,ioos:station:wmo:42051:1,2011-01-03T14:30:00Z,29.6350,-93.6417,2.0,271.4482444,18.20581226,-99999.0,'11111222,11111222,99999999' 
TABS,ioos:station:wmo:42051:1,2011-01-03T15:00:00Z,29.6350,-93.6417,2.0,270.3519235,17.93033742,-99999.0,'11111222,11111222,99999999' 
TABS,ioos:station:wmo:42051:1,2011-01-03T15:30:00Z,29.6350,-93.6417,2.0,271.006936,21.06324999,-99999.0,'11111222,11111222,99999999' 
TABS,ioos:station:wmo:42051:1,2011-01-03T16:00:00Z,29.6350,-93.6417,2.0,254.7056537,31.04961513,-99999.0,'11111222,11111222,99999999' 
TABS,ioos:station:wmo:42051:1,2011-01-03T16:30:00Z,29.6350,-93.6417,2.0,261.6218216,29.44420147,-99999.0,'11111222,11111222,99999999' 
TABS,ioos:station:wmo:42051:1,2011-01-03T17:00:00Z,29.6350,-93.6417,2.0,269.9374363,27.66001627,-99999.0,'11111222,11111222,99999999' 
TABS,ioos:station:wmo:42051:1,2011-01-03T17:30:00Z,29.6350,-93.6417,2.0,267.2024085,28.07344831,-99999.0,'11111222,11111222,99999999' 
TABS,ioos:station:wmo:42051:1,2011-01-03T18:00:00Z,29.6350,-93.6417,2.0,269.5971972,25.63063206,-99999.0,'11111222,11111222,99999999' 
TABS,ioos:station:wmo:42051:1,2011-01-03T18:30:00Z,29.6350,-93.6417,2.0,271.5915575,25.20972035,-99999.0,'11111222,11111222,99999999' 
TABS,ioos:station:wmo:42051:1,2011-01-03T19:00:00Z,29.6350,-93.6417,2.0,270.8140322,25.35255608,-99999.0,'11111222,11111222,99999999' 
TABS,ioos:station:wmo:42051:1,2011-01-03T19:30:00Z,29.6350,-93.6417,2.0,283.3476177,25.21097578,-99999.0,'11111222,11111222,99999999' 
TABS,ioos:station:wmo:42051:1,2011-01-03T20:00:00Z,29.6350,-93.6417,2.0,266.4618028,39.86597171,-99999.0,'11111222,11111222,99999999' 
TABS,ioos:station:wmo:42051:1,2011-01-03T20:30:00Z,29.6350,-93.6417,2.0,266.9975691,39.14371725,-99999.0,'11111222,11111222,99999999' 
TABS,ioos:station:wmo:42051:1,2011-01-03T21:00:00Z,29.6350,-93.6417,2.0,261.9216459,37.28999866,-99999.0,'11111222,11111222,99999999' 
TABS,ioos:station:wmo:42051:1,2011-01-03T21:30:00Z,29.6350,-93.6417,2.0,258.8800012,33.6517533,-99999.0,'11111222,11111222,99999999' 
TABS,ioos:station:wmo:42051:1,2011-01-03T22:00:00Z,29.6350,-93.6417,2.0,259.7671035,34.00078234,-99999.0,'11111222,11111222,99999999' 
TABS,ioos:station:wmo:42051:1,2011-01-03T22:30:00Z,29.6350,-93.6417,2.0,254.3018233,30.19625473,-99999.0,'11111222,11111222,99999999' 
TABS,ioos:station:wmo:42051:1,2011-01-03T23:00:00Z,29.6350,-93.6417,2.0,260.1254836,32.48114684,-99999.0,'11111222,11111222,99999999' 
TABS,ioos:station:wmo:42051:1,2011-01-03T23:30:00Z,29.6350,-93.6417,2.0,258.813297,27.2680509,-99999.0,'11111222,11111222,99999999' 
TABS,ioos:station:wmo:42051:1,2011-01-04T00:00:00Z,29.6350,-93.6417,2.0,254.3459542,23.20049999,-99999.0,'11111222,11111222,99999999' 
TABS,ioos:station:wmo:42051:1,2011-01-04T00:30:00Z,29.6350,-93.6417,2.0,255.820101,24.2487876,-99999.0,'11111222,11111222,99999999' 
TABS,ioos:station:wmo:42051:1,2011-01-04T01:00:00Z,29.6350,-93.6417,2.0,254.4975336,26.45231559,-99999.0,'11111222,11111222,99999999' 
TABS,ioos:station:wmo:42051:1,2011-01-04T01:30:00Z,29.6350,-93.6417,2.0,259.0391133,25.40339544,-99999.0,'11111222,11111222,99999999' 
TABS,ioos:station:wmo:42051:1,2011-01-04T02:00:00Z,29.6350,-93.6417,2.0,256.3294529,26.19195678,-99999.0,'11111222,11111222,99999999' 
TABS,ioos:station:wmo:42051:1,2011-01-04T02:30:00Z,29.6350,-93.6417,2.0,259.2351708,26.98484204,-99999.0,'11111222,11111222,99999999' 
TABS,ioos:station:wmo:42051:1,2011-01-04T03:00:00Z,29.6350,-93.6417,2.0,257.7083763,26.68159103,-99999.0,'11111222,11111222,99999999' 
TABS,ioos:station:wmo:42051:1,2011-01-04T03:30:00Z,29.6350,-93.6417,2.0,249.8373942,33.88655338,-99999.0,'11111222,11111222,99999999' 
TABS,ioos:station:wmo:42051:1,2011-01-04T04:00:00Z,29.6350,-93.6417,2.0,249.5944258,34.67590085,-99999.0,'11111222,11111222,99999999' 
TABS,ioos:station:wmo:42051:1,2011-01-04T04:30:00Z,29.6350,-93.6417,2.0,249.3531241,31.87736658,-99999.0,'11111222,11111222,99999999' 
TABS,ioos:station:wmo:42051:1,2011-01-04T05:00:00Z,29.6350,-93.6417,2.0,248.7970964,32.15676134,-99999.0,'11111222,11111222,99999999' 
TABS,ioos:station:wmo:42051:1,2011-01-04T05:30:00Z,29.6350,-93.6417,2.0,246.4104574,31.01136082,-99999.0,'11111222,11111222,99999999' 
TABS,ioos:station:wmo:42051:1,2011-01-04T06:00:00Z,29.6350,-93.6417,2.0,240.1311474,31.04348563,-99999.0,'11111222,11111222,99999999' 
TABS,ioos:station:wmo:42051:1,2011-01-04T06:30:00Z,29.6350,-93.6417,2.0,241.9008937,32.08117984,-99999.0,'11111222,11111222,99999999' 
TABS,ioos:station:wmo:42051:1,2011-01-04T07:00:00Z,29.6350,-93.6417,2.0,239.0291575,29.16847956,-99999.0,'11111222,11111222,99999999' 
TABS,ioos:station:wmo:42051:1,2011-01-04T07:30:00Z,29.6350,-93.6417,2.0,229.1066838,28.33582362,-99999.0,'11111222,11111222,99999999' 
TABS,ioos:station:wmo:42051:1,2011-01-04T08:00:00Z,29.6350,-93.6417,2.0,227.2389802,25.87865723,-99999.0,'11111222,11111222,99999999' 
TABS,ioos:station:wmo:42051:1,2011-01-04T08:30:00Z,29.6350,-93.6417,2.0,220.577801,24.12049958,-99999.0,'11111222,11111222,99999999' 
TABS,ioos:station:wmo:42051:1,2011-01-04T09:00:00Z,29.6350,-93.6417,2.0,215.6299005,23.7575609,-99999.0,'11111222,11111222,99999999' 
TABS,ioos:station:wmo:42051:1,2011-01-04T09:30:00Z,29.6350,-93.6417,2.0,216.0646775,25.76854284,-99999.0,'11111222,11111222,99999999' 
TABS,ioos:station:wmo:42051:1,2011-01-04T10:00:00Z,29.6350,-93.6417,2.0,214.3653874,23.75668748,-99999.0,'11111222,11111222,99999999' 
TABS,ioos:station:wmo:42051:1,2011-01-04T10:30:00Z,29.6350,-93.6417,2.0,212.7651223,25.0923574,-99999.0,'11111222,11111222,99999999' 
TABS,ioos:station:wmo:42051:1,2011-01-04T11:00:00Z,29.6350,-93.6417,2.0,210.0091647,24.71294398,-99999.0,'11111222,11111222,99999999' 
TABS,ioos:station:wmo:42051:1,2011-01-04T11:30:00Z,29.6350,-93.6417,2.0,205.9980746,22.60775309,-99999.0,'11111222,11111222,99999999' 
TABS,ioos:station:wmo:42051:1,2011-01-04T12:00:00Z,29.6350,-93.6417,2.0,222.0187554,24.06712488,-99999.0,'11111222,11111222,99999999' 
TABS,ioos:station:wmo:42051:1,2011-01-04T12:30:00Z,29.6350,-93.6417,2.0,213.7922094,21.71932089,-99999.0,'11111222,11111222,99999999' 
TABS,ioos:station:wmo:42051:1,2011-01-04T13:00:00Z,29.6350,-93.6417,2.0,221.7126036,21.58104956,-99999.0,'11111222,11111222,99999999' 
TABS,ioos:station:wmo:42051:1,2011-01-04T13:30:00Z,29.6350,-93.6417,2.0,234.8940597,19.42320777,-99999.0,'11111222,11111222,99999999' 
TABS,ioos:station:wmo:42051:1,2011-01-04T14:00:00Z,29.6350,-93.6417,2.0,252.5202892,15.54791947,-99999.0,'11111222,11111222,99999999' 
TABS,ioos:station:wmo:42051:1,2011-01-04T14:30:00Z,29.6350,-93.6417,2.0,254.1526131,15.1975952,-99999.0,'11111222,11111222,99999999' 
TABS,ioos:station:wmo:42051:1,2011-01-04T15:00:00Z,29.6350,-93.6417,2.0,259.773867,18.1381063,-99999.0,'11111222,11111222,99999999' 
TABS,ioos:station:wmo:42051:1,2011-01-04T15:30:00Z,29.6350,-93.6417,2.0,257.4635873,17.2307864,-99999.0,'11111222,11111222,99999999' 
TABS,ioos:station:wmo:42051:1,2011-01-04T16:00:00Z,29.6350,-93.6417,2.0,257.9616422,16.20638454,-99999.0,'11111222,11111222,99999999' 